Flag for Israel Weather past 2 weeks in Beersheba, Israel

Now
64 °F

Passing clouds.


Feels Like: 64 °F
Forecast: 57 / 68 °F
Wind: 6 mph from East

Location: Ben Gurion International Airport

Current Time: Feb 27, 2015 at 6:32:55 AM

Latest Report: Feb 27, 2015 at 5:50 AM


Visibility: N/A

Pressure: 29.95 "Hg

Humidity: 30%

Dew point: 32 °F

Location of BeershebaLocation

Historic Weather in Beersheba — Graph

°F

Beersheba temperature yesterday

Maximum temperature yesterday: 77 °F (at 3:50 PM)
Minimum temperature yesterday: 50 °F (at 3:20 AM)
Average temperature yesterday: 64 °F

Past Weeks' High & Low Weather Summary

 TemperatureHumidityPressure
High77 °F (Feb 26, 3:50 PM)94% (Feb 14, 4:50 AM)30.21 "Hg (Feb 14, 4:50 AM)
Low41 °F (Feb 19, 11:20 PM)26% (Feb 27, 2:20 AM)29.71 "Hg (Feb 20, 4:50 AM)
Average55 °F68%30.01 "Hg
* Reported Feb 12 4:20 AM — Feb 27 4:50 AM, Beersheba, Weather by CustomWeather, © 2015

Note: Actual official high and low records may vary slightly from our data, if they occured in-between our weather recording intervals... More about our weather records

Advertising

Beersheba weather history for previous 24 hours

 ConditionsComfort  
Time TempWeatherWind HumidityBarometerVisibility
4:50 AM
Fri, Feb 27
66 °FClear.1 mph28%29.92 "Hg10 mi
4:20 AM66 °FClear.9 mph28%29.92 "Hg10 mi
3:50 AM66 °FClear.15 mph28%29.92 "Hg10 mi
3:20 AM68 °FClear.13 mph26%29.95 "Hg10 mi
2:50 AM68 °FClear.7 mph26%29.95 "Hg10 mi
2:20 AM68 °FClear.6 mph26%29.95 "Hg10 mi
1:50 AM66 °FClear.9 mph30%29.95 "Hg10 mi
1:20 AM68 °FClear.12 mph28%29.98 "Hg10 mi
12:50 AM68 °FClear.10 mph28%29.98 "Hg10 mi
12:20 AM68 °FClear.8 mph28%29.98 "Hg10 mi
11:50 PM
Thu, Feb 26
70 °FClear.10 mph27%30.01 "Hg10 mi
11:20 PM70 °FClear.12 mph27%30.01 "Hg10 mi
10:50 PM70 °FClear.8 mph29%30.01 "Hg10 mi
10:20 PM70 °FClear.12 mph29%30.01 "Hg10 mi
9:50 PM64 °FClear.2 mph43%30.04 "Hg10 mi
9:20 PM66 °FClear.5 mph40%30.04 "Hg10 mi
8:50 PM64 °FClear.8 mph43%30.04 "Hg10 mi
8:20 PM64 °FClear.8 mph46%30.04 "Hg10 mi
7:50 PM64 °FClear.9 mph49%30.04 "Hg10 mi
7:20 PM64 °FClear.9 mph52%30.04 "Hg10 mi
6:50 PM66 °FClear.7 mph49%30.04 "Hg10 mi
6:20 PM68 °FClear.8 mph43%30.04 "Hg10 mi
5:50 PM73 °FClear.5 mph36%30.04 "Hg10 mi
5:20 PM73 °FSunny.6 mph36%30.04 "Hg10 mi
4:50 PM75 °FSunny.9 mph31%30.04 "Hg10 mi
4:20 PM77 °FSunny.15 mph30%30.04 "Hg10 mi
3:50 PM77 °FSunny.12 mph30%30.04 "Hg10 mi
3:20 PM75 °FSunny.14 mph31%30.04 "Hg10 mi
2:50 PM75 °FSunny.14 mph34%30.04 "Hg10 mi
2:20 PM75 °FSunny.18 mph34%30.07 "Hg10 mi
1:50 PM75 °FSunny.17 mph31%30.07 "Hg10 mi
1:20 PM73 °FSunny.17 mph33%30.07 "Hg10 mi
12:50 PM73 °FPassing clouds.12 mph33%30.09 "HgN/A
12:20 PM73 °FSunny.9 mph33%30.09 "Hg10 mi
11:50 AM72 °FSunny.13 mph36%30.12 "Hg10 mi
11:20 AM72 °FSunny.16 mph33%30.12 "Hg10 mi
10:50 AM70 °FSunny.17 mph38%30.12 "Hg10 mi
10:20 AM70 °FSunny.16 mph38%30.12 "Hg10 mi
9:50 AM68 °FSunny.14 mph40%30.15 "Hg10 mi
9:20 AM66 °FPassing clouds.6 mph46%30.15 "HgN/A
8:50 AM64 °FSunny.1 mph52%30.15 "Hg10 mi
7:50 AM59 °FSunny.1 mph63%30.15 "Hg10 mi
7:20 AM55 °FSunny.1 mph72%30.15 "Hg10 mi
6:50 AM54 °FSunny.7 mph72%30.15 "Hg10 mi
Weather by CustomWeather, © 2015

See weather overviewHow to use our weather pages